Home > Weather > Port Vila > Past weeks

Flag for Vanuatu Weather for the Past 2 Weeks in Port Vila, Vanuatu

Now
82 °F

Passing clouds.


Feels Like: 91 °F
Forecast: 81 / 90 °F
Wind: 3 mph from Northeast

Location: Bauerfield Efate

Current Time: Feb 8, 2016 at 10:28:55 PM

Latest Report: Feb 8, 2016 at 9:00 PM


Visibility: N/A

Pressure: 29.77 "Hg

Humidity: 84%

Dew point: 77 °F

Location of Port VilaLocation

Historic Weather in Port Vila — Graph

°F

Port Vila Temperature Yesterday

Maximum temperature yesterday: 93 °F (at 9:00 AM)
Minimum temperature yesterday: 75 °F (at 10:00 AM)
Average temperature yesterday: 85 °F

High & Low Weather Summary for the Past Weeks

 TemperatureHumidityPressure
High95 °F (Feb 5, 12:00 PM)100% (Jan 25, 5:00 AM)29.98 "Hg (Jan 25, 5:00 AM)
Low68 °F (Feb 2, 5:00 AM)41% (Feb 3, 1:00 PM)29.68 "Hg (Feb 4, 4:00 PM)
Average83 °F80%29.82 "Hg
* Reported Jan 24 9:00 PM — Feb 8 9:00 PM, Port Vila, Weather by CustomWeather, © 2016

Note: Actual official high and low records may vary slightly from our data, if they occured in-between our weather recording intervals... More about our weather records

Advertising

Port Vila Weather History for the Previous 24 Hours

 ConditionsComfort  
Time TempWeatherWind HumidityBarometerVisibility
9:00 PM
Mon, Feb 8
82 °FPassing clouds.3 mph84%29.77 "HgN/A
8:00 PM84 °FPartly cloudy.3 mph79%29.77 "HgN/A
7:00 PM84 °FPartly cloudy.5 mph84%29.74 "HgN/A
6:00 PM88 °FBroken clouds.5 mph70%29.71 "HgN/A
5:00 PM90 °FBroken clouds.7 mph71%29.71 "HgN/A
4:00 PM90 °FPartly sunny.8 mph71%29.71 "HgN/A
3:00 PM91 °FBroken clouds.9 mph67%29.71 "HgN/A
2:00 PM93 °FBroken clouds.10 mph63%29.74 "HgN/A
1:00 PM91 °FPartly sunny.14 mph67%29.74 "HgN/A
12:00 PM91 °FScattered clouds.10 mph63%29.77 "HgN/A
11:00 AM91 °FBroken clouds.9 mph67%29.77 "HgN/A
10:00 AM91 °FBroken clouds.9 mph63%29.80 "HgN/A
9:00 AM90 °FPartly sunny.2 mph67%29.80 "HgN/A
8:00 AM88 °FPartly sunny.5 mph70%29.80 "HgN/A
7:00 AM82 °FBroken clouds.2 mph84%29.80 "HgN/A
6:00 AM75 °FScattered clouds.2 mph94%29.77 "HgN/A
5:00 AM75 °FPassing clouds.2 mph94%29.77 "HgN/A
4:00 AM75 °FPassing clouds.3 mph94%29.77 "HgN/A
3:00 AM75 °FPassing clouds.3 mph94%29.77 "HgN/A
2:00 AM75 °FPassing clouds.2 mph94%29.77 "HgN/A
1:00 AM75 °FPassing clouds.2 mph94%29.80 "HgN/A
12:00 AM77 °FPassing clouds.2 mph94%29.83 "HgN/A
11:00 PM
Sun, Feb 7
77 °FPassing clouds.2 mph89%29.83 "HgN/A
10:00 PM77 °FPassing clouds.2 mph94%29.83 "HgN/A
Weather by CustomWeather, © 2016

See weather overviewHow to use our weather pages